Year,Month,Day,Hour,Minute,Value (Times are PST for temperature in C)
2010,06,24,00,00,17.10
2010,06,24,00,01,17.10
2010,06,24,00,02,17.00
2010,06,24,00,03,17.00
2010,06,24,00,04,17.00
2010,06,24,00,05,17.00
2010,06,24,00,06,17.00
2010,06,24,00,07,17.00
2010,06,24,00,08,17.00
2010,06,24,00,09,17.00
2010,06,24,00,10,17.00
2010,06,24,00,11,17.00
2010,06,24,00,12,17.10
2010,06,24,00,13,17.10
2010,06,24,00,14,17.20
2010,06,24,00,15,17.20
2010,06,24,00,16,17.20
2010,06,24,00,17,17.30
2010,06,24,00,18,17.20
2010,06,24,00,19,17.20
2010,06,24,00,20,17.20
2010,06,24,00,21,17.20
2010,06,24,00,22,17.20
2010,06,24,00,23,17.20
2010,06,24,00,24,17.10
2010,06,24,00,25,17.10
2010,06,24,00,26,17.10
2010,06,24,00,27,17.00
2010,06,24,00,28,17.00
2010,06,24,00,29,17.00
2010,06,24,00,30,16.90
2010,06,24,00,31,16.90
2010,06,24,00,32,16.80
2010,06,24,00,33,16.80
2010,06,24,00,34,16.80
2010,06,24,00,35,16.70
2010,06,24,00,36,16.70
2010,06,24,00,37,16.70
2010,06,24,00,38,16.70
2010,06,24,00,39,16.60
2010,06,24,00,40,16.60
2010,06,24,00,41,16.40
2010,06,24,00,42,16.40
2010,06,24,00,43,16.40
2010,06,24,00,44,16.40
2010,06,24,00,45,16.40
2010,06,24,00,46,16.30
2010,06,24,00,47,16.30
2010,06,24,00,48,16.20
2010,06,24,00,49,16.20
2010,06,24,00,50,16.10
2010,06,24,00,51,16.10
2010,06,24,00,52,16.10
2010,06,24,00,53,15.90
2010,06,24,00,54,15.90
2010,06,24,00,55,15.90
2010,06,24,00,56,15.90
2010,06,24,00,57,15.80
2010,06,24,00,58,15.80
2010,06,24,00,59,15.80
2010,06,24,01,00,15.80
2010,06,24,01,01,15.80
2010,06,24,01,02,15.80
2010,06,24,01,03,15.80
2010,06,24,01,04,15.80
2010,06,24,01,05,15.70
2010,06,24,01,06,15.70
2010,06,24,01,07,15.60
2010,06,24,01,08,15.60
2010,06,24,01,09,15.60
2010,06,24,01,10,15.50
2010,06,24,01,11,15.50
2010,06,24,01,12,15.50
2010,06,24,01,13,15.50
2010,06,24,01,14,15.50
2010,06,24,01,15,15.40
2010,06,24,01,16,15.30
2010,06,24,01,17,15.30
2010,06,24,01,18,15.30
2010,06,24,01,19,15.30
2010,06,24,01,20,15.30
2010,06,24,01,21,15.30
2010,06,24,01,22,15.30
2010,06,24,01,23,15.30
2010,06,24,01,24,15.30
2010,06,24,01,25,15.30
2010,06,24,01,26,15.30
2010,06,24,01,27,15.30
2010,06,24,01,28,15.30
2010,06,24,01,29,15.30
2010,06,24,01,30,15.30
2010,06,24,01,31,15.30
2010,06,24,01,32,15.30
2010,06,24,01,33,15.30
2010,06,24,01,34,15.30
2010,06,24,01,35,15.30
2010,06,24,01,36,15.30
2010,06,24,01,37,15.30
2010,06,24,01,38,15.30
2010,06,24,01,39,15.30
2010,06,24,01,40,15.30
2010,06,24,01,41,15.30
2010,06,24,01,42,15.30
2010,06,24,01,43,15.30
2010,06,24,01,44,15.30
2010,06,24,01,45,15.30
2010,06,24,01,46,15.30
2010,06,24,01,47,15.30
2010,06,24,01,48,15.30
2010,06,24,01,49,15.30
2010,06,24,01,50,15.30
2010,06,24,01,51,15.30
2010,06,24,01,52,15.30
2010,06,24,01,53,15.30
2010,06,24,01,54,15.30
2010,06,24,01,55,15.30
2010,06,24,01,56,15.30
2010,06,24,01,57,15.30
2010,06,24,01,58,15.20
2010,06,24,01,59,15.20
2010,06,24,02,00,15.20
2010,06,24,02,01,15.20
2010,06,24,02,02,15.20
2010,06,24,02,03,15.20
2010,06,24,02,04,15.20
2010,06,24,02,05,15.20
2010,06,24,02,06,15.20
2010,06,24,02,07,15.20
2010,06,24,02,08,15.20
2010,06,24,02,09,15.20
2010,06,24,02,10,15.20
2010,06,24,02,11,15.20
2010,06,24,02,12,15.20
2010,06,24,02,13,15.20
2010,06,24,02,14,15.10
2010,06,24,02,15,15.10
2010,06,24,02,16,15.00
2010,06,24,02,17,15.00
2010,06,24,02,18,14.90
2010,06,24,02,19,14.90
2010,06,24,02,20,14.90
2010,06,24,02,21,14.90
2010,06,24,02,22,14.80
2010,06,24,02,23,14.80
2010,06,24,02,24,14.80
2010,06,24,02,25,14.80
2010,06,24,02,26,14.80
2010,06,24,02,27,14.80
2010,06,24,02,28,14.80
2010,06,24,02,29,14.80
2010,06,24,02,30,14.80
2010,06,24,02,31,14.80
2010,06,24,02,32,14.80
2010,06,24,02,33,14.80
2010,06,24,02,34,14.80
2010,06,24,02,35,14.80
2010,06,24,02,36,14.80
2010,06,24,02,37,14.80
2010,06,24,02,38,14.80
2010,06,24,02,39,14.80
2010,06,24,02,40,14.80
2010,06,24,02,41,14.80
2010,06,24,02,42,14.80
2010,06,24,02,43,14.80
2010,06,24,02,44,14.80
2010,06,24,02,45,14.80
2010,06,24,02,46,14.80
2010,06,24,02,47,14.80
2010,06,24,02,48,14.80
2010,06,24,02,49,14.80
2010,06,24,02,50,14.80
2010,06,24,02,51,14.90
2010,06,24,02,52,14.90
2010,06,24,02,53,15.00
2010,06,24,02,54,15.00
2010,06,24,02,55,15.00
2010,06,24,02,56,15.10
2010,06,24,02,57,15.10
2010,06,24,02,58,15.10
2010,06,24,02,59,15.10
2010,06,24,03,00,15.10
2010,06,24,03,01,15.10
2010,06,24,03,02,15.10
2010,06,24,03,03,15.10
2010,06,24,03,04,15.10
2010,06,24,03,05,15.20
2010,06,24,03,06,15.20
2010,06,24,03,07,15.20
2010,06,24,03,08,15.20
2010,06,24,03,09,15.30
2010,06,24,03,10,15.30
2010,06,24,03,11,15.30
2010,06,24,03,12,15.30
2010,06,24,03,13,15.30
2010,06,24,03,14,15.30
2010,06,24,03,15,15.30
2010,06,24,03,16,15.30
2010,06,24,03,17,15.30
2010,06,24,03,18,15.30
2010,06,24,03,19,15.30
2010,06,24,03,20,15.30
2010,06,24,03,21,15.30
2010,06,24,03,22,15.30
2010,06,24,03,23,15.30
2010,06,24,03,24,15.30
2010,06,24,03,25,15.30
2010,06,24,03,26,15.20
2010,06,24,03,27,15.20
2010,06,24,03,28,15.10
2010,06,24,03,29,15.10
2010,06,24,03,30,15.10
2010,06,24,03,31,15.10
2010,06,24,03,32,15.10
2010,06,24,03,33,15.00
2010,06,24,03,34,15.00
2010,06,24,03,35,15.00
2010,06,24,03,36,15.00
2010,06,24,03,37,15.10
2010,06,24,03,38,15.10
2010,06,24,03,39,15.10
2010,06,24,03,40,15.10
2010,06,24,03,41,15.10
2010,06,24,03,42,15.10
2010,06,24,03,43,15.00
2010,06,24,03,44,15.00
2010,06,24,03,45,15.00
2010,06,24,03,46,15.00
2010,06,24,03,47,14.90
2010,06,24,03,48,14.90
2010,06,24,03,49,14.90
2010,06,24,03,50,14.90
2010,06,24,03,51,14.90
2010,06,24,03,52,14.90
2010,06,24,03,53,14.90
2010,06,24,03,54,14.90
2010,06,24,03,55,14.90
2010,06,24,03,56,14.90
2010,06,24,03,57,14.90
2010,06,24,03,58,14.90
2010,06,24,03,59,14.90
2010,06,24,04,00,14.80
2010,06,24,04,01,14.80
2010,06,24,04,02,14.80
2010,06,24,04,03,14.80
2010,06,24,04,04,14.80
2010,06,24,04,05,14.80
2010,06,24,04,06,14.80
2010,06,24,04,07,14.80
2010,06,24,04,08,14.80
2010,06,24,04,09,14.80
2010,06,24,04,10,14.80
2010,06,24,04,11,14.80
2010,06,24,04,12,14.80
2010,06,24,04,13,14.80
2010,06,24,04,14,14.70
2010,06,24,04,15,14.70
2010,06,24,04,16,14.70
2010,06,24,04,17,14.70
2010,06,24,04,18,14.70
2010,06,24,04,19,14.70
2010,06,24,04,20,14.70
2010,06,24,04,21,14.70
2010,06,24,04,22,14.70
2010,06,24,04,23,14.70
2010,06,24,04,24,14.70
2010,06,24,04,25,14.70
2010,06,24,04,26,14.70
2010,06,24,04,27,14.70
2010,06,24,04,28,14.70
2010,06,24,04,29,14.70
2010,06,24,04,30,14.70
2010,06,24,04,31,14.80
2010,06,24,04,32,14.70
2010,06,24,04,33,14.70
2010,06,24,04,34,14.70
2010,06,24,04,35,14.70
2010,06,24,04,36,14.60
2010,06,24,04,37,14.60
2010,06,24,04,38,14.50
2010,06,24,04,39,14.50
2010,06,24,04,40,14.50
2010,06,24,04,41,14.40
2010,06,24,04,42,14.40
2010,06,24,04,43,14.40
2010,06,24,04,44,14.40
2010,06,24,04,45,14.40
2010,06,24,04,46,14.40
2010,06,24,04,47,14.30
2010,06,24,04,48,14.30
2010,06,24,04,49,14.30
2010,06,24,04,50,14.30
2010,06,24,04,51,14.30
2010,06,24,04,52,14.30
2010,06,24,04,53,14.30
2010,06,24,04,54,14.30
2010,06,24,04,55,14.30
2010,06,24,04,56,14.30
2010,06,24,04,57,14.40
2010,06,24,04,58,14.40
2010,06,24,04,59,14.40
2010,06,24,05,00,14.40
2010,06,24,05,01,14.40
2010,06,24,05,02,14.30
2010,06,24,05,03,14.30
2010,06,24,05,04,14.40
2010,06,24,05,05,14.40
2010,06,24,05,06,14.40
2010,06,24,05,07,14.40
2010,06,24,05,08,14.30
2010,06,24,05,09,14.30
2010,06,24,05,10,14.30
2010,06,24,05,11,14.30
2010,06,24,05,12,14.40
2010,06,24,05,13,14.40
2010,06,24,05,14,14.40
2010,06,24,05,15,14.40
2010,06,24,05,16,14.40
2010,06,24,05,17,14.40
2010,06,24,05,18,14.40
2010,06,24,05,19,14.30
2010,06,24,05,20,14.30
2010,06,24,05,21,14.30
2010,06,24,05,22,14.30
2010,06,24,05,23,14.30
2010,06,24,05,24,14.30
2010,06,24,05,25,14.30
2010,06,24,05,26,14.30
2010,06,24,05,27,14.30
2010,06,24,05,28,14.30
2010,06,24,05,29,14.40
2010,06,24,05,30,14.40
2010,06,24,05,31,14.40
2010,06,24,05,32,14.40
2010,06,24,05,33,14.40
2010,06,24,05,34,14.40
2010,06,24,05,35,14.40
2010,06,24,05,36,14.40
2010,06,24,05,37,14.40
2010,06,24,05,38,14.40
2010,06,24,05,39,14.40
2010,06,24,05,40,14.40
2010,06,24,05,41,14.40
2010,06,24,05,42,14.40
2010,06,24,05,43,14.40
2010,06,24,05,44,14.40
2010,06,24,05,45,14.40
2010,06,24,05,46,14.30
2010,06,24,05,47,14.30
2010,06,24,05,48,14.30
2010,06,24,05,49,14.30
2010,06,24,05,50,14.40
2010,06,24,05,51,14.40
2010,06,24,05,52,14.40
2010,06,24,05,53,14.40
2010,06,24,05,54,14.40
2010,06,24,05,55,14.40
2010,06,24,05,56,14.40
2010,06,24,05,57,14.50
2010,06,24,05,58,14.50
2010,06,24,05,59,14.50
2010,06,24,06,00,14.50
2010,06,24,06,01,14.50
2010,06,24,06,02,14.50
2010,06,24,06,03,14.50
2010,06,24,06,04,14.60
2010,06,24,06,05,14.60
2010,06,24,06,06,14.60
2010,06,24,06,07,14.60
2010,06,24,06,08,14.60
2010,06,24,06,09,14.60
2010,06,24,06,10,14.60
2010,06,24,06,11,14.60
2010,06,24,06,12,14.60
2010,06,24,06,13,14.60
2010,06,24,06,14,14.60
2010,06,24,06,15,14.60
2010,06,24,06,16,14.70
2010,06,24,06,17,14.70
2010,06,24,06,18,14.70
2010,06,24,06,19,14.70
2010,06,24,06,20,14.70
2010,06,24,06,21,14.70
2010,06,24,06,22,14.70
2010,06,24,06,23,14.70
2010,06,24,06,24,14.70
2010,06,24,06,25,14.70
2010,06,24,06,26,14.70
2010,06,24,06,27,14.70
2010,06,24,06,28,14.70
2010,06,24,06,29,14.70
2010,06,24,06,30,14.70
2010,06,24,06,31,14.80
2010,06,24,06,32,14.80
2010,06,24,06,33,14.80
2010,06,24,06,34,14.80
2010,06,24,06,35,14.80
2010,06,24,06,36,14.90
2010,06,24,06,37,14.90
2010,06,24,06,38,15.00
2010,06,24,06,39,15.00
2010,06,24,06,40,15.00
2010,06,24,06,41,15.10
2010,06,24,06,42,15.10
2010,06,24,06,43,15.10
2010,06,24,06,44,15.10
2010,06,24,06,45,15.20
2010,06,24,06,46,15.20
2010,06,24,06,47,15.20
2010,06,24,06,48,15.30
2010,06,24,06,49,15.30
2010,06,24,06,50,15.30
2010,06,24,06,51,15.30
2010,06,24,06,52,15.40
2010,06,24,06,53,15.50
2010,06,24,06,54,15.50
2010,06,24,06,55,15.50
2010,06,24,06,56,15.60
2010,06,24,06,57,15.70
2010,06,24,06,58,15.70
2010,06,24,06,59,15.70
2010,06,24,07,00,15.80
2010,06,24,07,01,15.80
2010,06,24,07,02,15.90
2010,06,24,07,03,15.90
2010,06,24,07,04,16.10
2010,06,24,07,05,16.10
2010,06,24,07,06,16.10
2010,06,24,07,07,16.20
2010,06,24,07,08,16.30
2010,06,24,07,09,16.30
2010,06,24,07,10,16.40
2010,06,24,07,11,16.40
2010,06,24,07,12,16.60
2010,06,24,07,13,16.70
2010,06,24,07,14,16.70
2010,06,24,07,15,16.80
2010,06,24,07,16,16.80
2010,06,24,07,17,16.90
2010,06,24,07,18,17.00
2010,06,24,07,19,17.00
2010,06,24,07,20,17.10
2010,06,24,07,21,17.10
2010,06,24,07,22,17.10
2010,06,24,07,23,17.10
2010,06,24,07,24,17.20
2010,06,24,07,25,17.20
2010,06,24,07,26,17.20
2010,06,24,07,27,17.20
2010,06,24,07,28,17.30
2010,06,24,07,29,17.30
2010,06,24,07,30,17.30
2010,06,24,07,31,17.30
2010,06,24,07,32,17.30
2010,06,24,07,33,17.30
2010,06,24,07,34,17.30
2010,06,24,07,35,17.30
2010,06,24,07,36,17.40
2010,06,24,07,37,17.40
2010,06,24,07,38,17.40
2010,06,24,07,39,17.40
2010,06,24,07,40,17.40
2010,06,24,07,41,17.50
2010,06,24,07,42,17.50
2010,06,24,07,43,17.50
2010,06,24,07,44,17.50
2010,06,24,07,45,17.50
2010,06,24,07,46,17.60
2010,06,24,07,47,17.60
2010,06,24,07,48,17.70
2010,06,24,07,49,17.60
2010,06,24,07,50,17.60
2010,06,24,07,51,17.70
2010,06,24,07,52,17.70
2010,06,24,07,53,17.70
2010,06,24,07,54,17.80
2010,06,24,07,55,17.80
2010,06,24,07,56,17.90
2010,06,24,07,57,17.90
2010,06,24,07,58,17.90
2010,06,24,07,59,17.90
2010,06,24,08,00,17.80
2010,06,24,08,01,17.80
2010,06,24,08,02,17.80
2010,06,24,08,03,17.70
2010,06,24,08,04,17.70
2010,06,24,08,05,17.80
2010,06,24,08,06,17.80
2010,06,24,08,07,17.80
2010,06,24,08,08,17.90
2010,06,24,08,09,17.90
2010,06,24,08,10,17.90
2010,06,24,08,11,17.90
2010,06,24,08,12,17.90
2010,06,24,08,13,18.00
2010,06,24,08,14,18.10
2010,06,24,08,15,18.10
2010,06,24,08,16,18.10
2010,06,24,08,17,18.10
2010,06,24,08,18,18.20
2010,06,24,08,19,18.20
2010,06,24,08,20,18.20
2010,06,24,08,21,18.20
2010,06,24,08,22,18.20
2010,06,24,08,23,18.20
2010,06,24,08,24,18.30
2010,06,24,08,25,18.30
2010,06,24,08,26,18.30
2010,06,24,08,27,18.30
2010,06,24,08,28,18.30
2010,06,24,08,29,18.30
2010,06,24,08,30,18.30
2010,06,24,08,31,18.40
2010,06,24,08,32,18.40
2010,06,24,08,33,18.40
2010,06,24,08,34,18.40
2010,06,24,08,35,18.40
2010,06,24,08,36,18.40
2010,06,24,08,37,18.40
2010,06,24,08,38,18.40
2010,06,24,08,39,18.40
2010,06,24,08,40,18.50
2010,06,24,08,41,18.50
2010,06,24,08,42,18.50
2010,06,24,08,43,18.50
2010,06,24,08,44,18.50
2010,06,24,08,45,18.50
2010,06,24,08,46,18.50
2010,06,24,08,47,18.50
2010,06,24,08,48,18.50
2010,06,24,08,49,18.50
2010,06,24,08,50,18.50
2010,06,24,08,51,18.50
2010,06,24,08,52,18.40
2010,06,24,08,53,18.40
2010,06,24,08,54,18.30
2010,06,24,08,55,18.30
2010,06,24,08,56,18.20
2010,06,24,08,57,18.20
2010,06,24,08,58,18.20
2010,06,24,08,59,18.00
2010,06,24,09,00,17.90
2010,06,24,09,01,17.90
2010,06,24,09,02,17.80
2010,06,24,09,03,17.70
2010,06,24,09,04,17.70
2010,06,24,09,05,17.70
2010,06,24,09,06,17.70
2010,06,24,09,07,17.80
2010,06,24,09,08,17.70
2010,06,24,09,09,17.70
2010,06,24,09,10,17.80
2010,06,24,09,11,17.80
2010,06,24,09,12,17.80
2010,06,24,09,13,17.90
2010,06,24,09,14,17.90
2010,06,24,09,15,17.90
2010,06,24,09,16,17.90
2010,06,24,09,17,17.80
2010,06,24,09,18,17.80
2010,06,24,09,19,17.70
2010,06,24,09,20,17.70
2010,06,24,09,21,17.60
2010,06,24,09,22,17.60
2010,06,24,09,23,17.60
2010,06,24,09,24,17.50
2010,06,24,09,25,17.50
2010,06,24,09,26,17.40
2010,06,24,09,27,17.40
2010,06,24,09,28,17.40
2010,06,24,09,29,17.40
2010,06,24,09,30,17.40
2010,06,24,09,31,17.40
2010,06,24,09,32,17.40
2010,06,24,09,33,17.50
2010,06,24,09,34,17.50
2010,06,24,09,35,17.60
2010,06,24,09,36,17.60
2010,06,24,09,37,17.60
2010,06,24,09,38,17.60
2010,06,24,09,39,17.70
2010,06,24,09,40,17.70
2010,06,24,09,41,17.70
2010,06,24,09,42,17.70
2010,06,24,09,43,17.80
2010,06,24,09,44,17.90
2010,06,24,09,45,17.90
2010,06,24,09,46,17.90
2010,06,24,09,47,17.90
2010,06,24,09,48,17.90
2010,06,24,09,49,17.90
2010,06,24,09,50,17.90
2010,06,24,09,51,17.90
2010,06,24,09,52,18.00
2010,06,24,09,53,18.10
2010,06,24,09,54,18.10
2010,06,24,09,55,18.20
2010,06,24,09,56,18.20
2010,06,24,09,57,18.20
2010,06,24,09,58,18.20
2010,06,24,09,59,18.20
2010,06,24,10,00,18.30
2010,06,24,10,01,18.30
2010,06,24,10,02,18.20
2010,06,24,10,03,18.20
2010,06,24,10,04,18.20
2010,06,24,10,05,18.20
2010,06,24,10,06,18.30
2010,06,24,10,07,18.30
2010,06,24,10,08,18.30
2010,06,24,10,09,18.30
2010,06,24,10,10,18.30
2010,06,24,10,11,18.30
2010,06,24,10,12,18.30
2010,06,24,10,13,18.30
2010,06,24,10,14,18.20
2010,06,24,10,15,18.20
2010,06,24,10,16,18.10
2010,06,24,10,17,18.10
2010,06,24,10,18,18.00
2010,06,24,10,19,17.90
2010,06,24,10,20,17.90
2010,06,24,10,21,17.80
2010,06,24,10,22,17.80
2010,06,24,10,23,17.80
2010,06,24,10,24,17.80
2010,06,24,10,25,17.80
2010,06,24,10,26,17.80
2010,06,24,10,27,17.80
2010,06,24,10,28,17.90
2010,06,24,10,29,17.90
2010,06,24,10,30,17.90
2010,06,24,10,31,17.90
2010,06,24,10,32,17.90
2010,06,24,10,33,17.90
2010,06,24,10,34,17.90
2010,06,24,10,35,17.90
2010,06,24,10,36,17.90
2010,06,24,10,37,17.90
2010,06,24,10,38,17.90
2010,06,24,10,39,17.90
2010,06,24,10,40,17.90
2010,06,24,10,41,17.90
2010,06,24,10,42,17.90
2010,06,24,10,43,17.90
2010,06,24,10,44,17.90
2010,06,24,10,45,18.00
2010,06,24,10,46,18.10
2010,06,24,10,47,18.20
2010,06,24,10,48,18.20
2010,06,24,10,49,18.30
2010,06,24,10,50,18.40
2010,06,24,10,51,18.60
2010,06,24,10,52,18.70
2010,06,24,10,53,18.80
2010,06,24,10,54,18.90
2010,06,24,10,55,19.00
2010,06,24,10,56,19.10
2010,06,24,10,57,19.10
2010,06,24,10,58,19.20
2010,06,24,10,59,19.30
2010,06,24,11,00,19.40
2010,06,24,11,01,19.50
2010,06,24,11,02,19.60
2010,06,24,11,03,19.70
2010,06,24,11,04,19.80
2010,06,24,11,05,19.90
2010,06,24,11,06,19.90
2010,06,24,11,07,20.00
2010,06,24,11,08,20.10
2010,06,24,11,09,20.20
2010,06,24,11,10,20.30
2010,06,24,11,11,20.50
2010,06,24,11,12,20.60
2010,06,24,11,13,20.60
2010,06,24,11,14,20.70
2010,06,24,11,15,20.60
2010,06,24,11,16,20.40
2010,06,24,11,17,20.10
2010,06,24,11,18,19.90
2010,06,24,11,19,19.70
2010,06,24,11,20,19.50
2010,06,24,11,21,19.30
2010,06,24,11,22,19.20
2010,06,24,11,23,19.20
2010,06,24,11,24,19.20
2010,06,24,11,25,19.10
2010,06,24,11,26,19.10
2010,06,24,11,27,19.10
2010,06,24,11,28,19.10
2010,06,24,11,29,19.10
2010,06,24,11,30,19.10
2010,06,24,11,31,19.10
2010,06,24,11,32,19.10
2010,06,24,11,33,19.10
2010,06,24,11,34,19.10
2010,06,24,11,35,18.90
2010,06,24,11,36,18.90
2010,06,24,11,37,18.80
2010,06,24,11,38,18.80
2010,06,24,11,39,18.80
2010,06,24,11,40,18.80
2010,06,24,11,41,18.80
2010,06,24,11,42,18.80
2010,06,24,11,43,18.80
2010,06,24,11,44,18.70
2010,06,24,11,45,18.70
2010,06,24,11,46,18.70
2010,06,24,11,47,18.70
2010,06,24,11,48,18.80
2010,06,24,11,49,18.80
2010,06,24,11,50,18.80
2010,06,24,11,51,18.90
2010,06,24,11,52,18.80
2010,06,24,11,53,18.80
2010,06,24,11,54,18.80
2010,06,24,11,55,18.80
2010,06,24,11,56,18.90
2010,06,24,11,57,18.90
2010,06,24,11,58,18.90
2010,06,24,11,59,18.90
2010,06,24,12,00,18.90
2010,06,24,12,01,19.10
2010,06,24,12,02,19.10
2010,06,24,12,03,19.00
2010,06,24,12,04,18.90
2010,06,24,12,05,18.90
2010,06,24,12,06,18.70
2010,06,24,12,07,18.70
2010,06,24,12,08,18.60
2010,06,24,12,09,18.50
2010,06,24,12,10,18.60
2010,06,24,12,11,18.60
2010,06,24,12,12,18.70
2010,06,24,12,13,18.70
2010,06,24,12,14,18.70
2010,06,24,12,15,18.60
2010,06,24,12,16,18.60
2010,06,24,12,17,18.50
2010,06,24,12,18,18.50
2010,06,24,12,19,18.40
2010,06,24,12,20,18.40
2010,06,24,12,21,18.30
2010,06,24,12,22,18.20
2010,06,24,12,23,18.10
2010,06,24,12,24,18.10
2010,06,24,12,25,18.10
2010,06,24,12,26,18.10
2010,06,24,12,27,18.10
2010,06,24,12,28,18.10
2010,06,24,12,29,18.10
2010,06,24,12,30,18.10
2010,06,24,12,31,18.20
2010,06,24,12,32,18.20
2010,06,24,12,33,18.20
2010,06,24,12,34,18.20
2010,06,24,12,35,18.30
2010,06,24,12,36,18.30
2010,06,24,12,37,18.50
2010,06,24,12,38,18.70
2010,06,24,12,39,18.90
2010,06,24,12,40,19.10
2010,06,24,12,41,19.30
2010,06,24,12,42,19.50
2010,06,24,12,43,19.60
2010,06,24,12,44,19.70
2010,06,24,12,45,19.90
2010,06,24,12,46,20.00
2010,06,24,12,47,20.10
2010,06,24,12,48,20.20
2010,06,24,12,49,20.20
2010,06,24,12,50,20.20
2010,06,24,12,51,20.20
2010,06,24,12,52,20.30
2010,06,24,12,53,20.30
2010,06,24,12,54,20.40
2010,06,24,12,55,20.50
2010,06,24,12,56,20.60
2010,06,24,12,57,20.70
2010,06,24,12,58,20.80
2010,06,24,12,59,20.90
2010,06,24,13,00,21.00
2010,06,24,13,01,21.00
2010,06,24,13,02,21.10
2010,06,24,13,03,21.10
2010,06,24,13,04,21.20
2010,06,24,13,05,21.20
2010,06,24,13,06,21.20
2010,06,24,13,07,21.10
2010,06,24,13,08,21.10
2010,06,24,13,09,21.10
2010,06,24,13,10,21.10
2010,06,24,13,11,21.10
2010,06,24,13,12,21.20
2010,06,24,13,13,21.30
2010,06,24,13,14,21.30
2010,06,24,13,15,21.40
2010,06,24,13,16,21.40
2010,06,24,13,17,21.40
2010,06,24,13,18,21.40
2010,06,24,13,19,21.40
2010,06,24,13,20,21.30
2010,06,24,13,21,21.30
2010,06,24,13,22,21.20
2010,06,24,13,23,21.20
2010,06,24,13,24,21.10
2010,06,24,13,25,21.10
2010,06,24,13,26,21.10
2010,06,24,13,27,21.00
2010,06,24,13,28,21.00
2010,06,24,13,29,20.90
2010,06,24,13,30,20.90
2010,06,24,13,31,20.90
2010,06,24,13,32,20.90
2010,06,24,13,33,20.90
2010,06,24,13,34,21.00
2010,06,24,13,35,21.00
2010,06,24,13,36,21.10
2010,06,24,13,37,21.10
2010,06,24,13,38,21.20
2010,06,24,13,39,21.20
2010,06,24,13,40,21.20
2010,06,24,13,41,21.30
2010,06,24,13,42,21.30
2010,06,24,13,43,21.30
2010,06,24,13,44,21.30
2010,06,24,13,45,21.30
2010,06,24,13,46,21.30
2010,06,24,13,47,21.40
2010,06,24,13,48,21.60
2010,06,24,13,49,21.60
2010,06,24,13,50,21.60
2010,06,24,13,51,21.60
2010,06,24,13,52,21.50
2010,06,24,13,53,21.30
2010,06,24,13,54,21.30
2010,06,24,13,55,21.20
2010,06,24,13,56,21.10
2010,06,24,13,57,21.10
2010,06,24,13,58,21.10
2010,06,24,13,59,21.20
2010,06,24,14,00,21.30
2010,06,24,14,01,21.50
2010,06,24,14,02,21.70
2010,06,24,14,03,21.90
2010,06,24,14,04,22.00
2010,06,24,14,05,22.00
2010,06,24,14,06,21.90
2010,06,24,14,07,21.90
2010,06,24,14,08,21.90
2010,06,24,14,09,21.90
2010,06,24,14,10,22.00
2010,06,24,14,11,22.00
2010,06,24,14,12,22.10
2010,06,24,14,13,22.20
2010,06,24,14,14,22.20
2010,06,24,14,15,22.20
2010,06,24,14,16,22.30
2010,06,24,14,17,22.30
2010,06,24,14,18,22.40
2010,06,24,14,19,22.40
2010,06,24,14,20,22.40
2010,06,24,14,21,22.50
2010,06,24,14,22,22.50
2010,06,24,14,23,22.50
2010,06,24,14,24,22.40
2010,06,24,14,25,22.40
2010,06,24,14,26,22.40
2010,06,24,14,27,22.30
2010,06,24,14,28,22.10
2010,06,24,14,29,22.00
2010,06,24,14,30,21.90
2010,06,24,14,31,21.80
2010,06,24,14,32,21.60
2010,06,24,14,33,21.50
2010,06,24,14,34,21.30
2010,06,24,14,35,21.10
2010,06,24,14,36,21.00
2010,06,24,14,37,20.90
2010,06,24,14,38,20.80
2010,06,24,14,39,20.70
2010,06,24,14,40,20.70
2010,06,24,14,41,20.80
2010,06,24,14,42,20.90
2010,06,24,14,43,21.10
2010,06,24,14,44,21.30
2010,06,24,14,45,21.50
2010,06,24,14,46,21.60
2010,06,24,14,47,21.60
2010,06,24,14,48,21.70
2010,06,24,14,49,21.70
2010,06,24,14,50,21.80
2010,06,24,14,51,21.80
2010,06,24,14,52,21.90
2010,06,24,14,53,22.00
2010,06,24,14,54,22.00
2010,06,24,14,55,22.10
2010,06,24,14,56,22.10
2010,06,24,14,57,22.20
2010,06,24,14,58,22.30
2010,06,24,14,59,22.40
2010,06,24,15,00,22.50
2010,06,24,15,01,22.70
2010,06,24,15,02,22.80
2010,06,24,15,03,22.90
2010,06,24,15,04,22.90
2010,06,24,15,05,22.90
2010,06,24,15,06,22.90
2010,06,24,15,07,22.80
2010,06,24,15,08,22.70
2010,06,24,15,09,22.70
2010,06,24,15,10,22.70
2010,06,24,15,11,22.70
2010,06,24,15,12,22.70
2010,06,24,15,13,22.70
2010,06,24,15,14,22.70
2010,06,24,15,15,22.70
2010,06,24,15,16,22.60
2010,06,24,15,17,22.50
2010,06,24,15,18,22.40
2010,06,24,15,19,22.30
2010,06,24,15,20,22.30
2010,06,24,15,21,22.20
2010,06,24,15,22,22.10
2010,06,24,15,23,22.10
2010,06,24,15,24,22.00
2010,06,24,15,25,22.10
2010,06,24,15,26,22.10
2010,06,24,15,27,22.00
2010,06,24,15,28,22.00
2010,06,24,15,29,22.00
2010,06,24,15,30,21.90
2010,06,24,15,31,21.90
2010,06,24,15,32,21.90
2010,06,24,15,33,21.80
2010,06,24,15,34,21.80
2010,06,24,15,35,21.90
2010,06,24,15,36,22.00
2010,06,24,15,37,22.10
2010,06,24,15,38,22.20
2010,06,24,15,39,22.30
2010,06,24,15,40,22.40
2010,06,24,15,41,22.40
2010,06,24,15,42,22.40
2010,06,24,15,43,22.40
2010,06,24,15,44,22.40
2010,06,24,15,45,22.40
2010,06,24,15,46,22.30
2010,06,24,15,47,22.30
2010,06,24,15,48,22.30
2010,06,24,15,49,22.20
2010,06,24,15,50,22.20
2010,06,24,15,51,22.20
2010,06,24,15,52,22.10
2010,06,24,15,53,22.00
2010,06,24,15,54,22.00
2010,06,24,15,55,21.90
2010,06,24,15,56,21.90
2010,06,24,15,57,21.90
2010,06,24,15,58,21.80
2010,06,24,15,59,21.80
2010,06,24,16,00,21.80
2010,06,24,16,01,21.80
2010,06,24,16,02,21.80
2010,06,24,16,03,21.80
2010,06,24,16,04,21.90
2010,06,24,16,05,21.90
2010,06,24,16,06,22.00
2010,06,24,16,07,22.00
2010,06,24,16,08,22.00
2010,06,24,16,09,22.10
2010,06,24,16,10,22.20
2010,06,24,16,11,22.30
2010,06,24,16,12,22.50
2010,06,24,16,13,22.60
2010,06,24,16,14,22.60
2010,06,24,16,15,22.70
2010,06,24,16,16,22.70
2010,06,24,16,17,22.70
2010,06,24,16,18,22.70
2010,06,24,16,19,22.60
2010,06,24,16,20,22.50
2010,06,24,16,21,22.40
2010,06,24,16,22,22.30
2010,06,24,16,23,22.30
2010,06,24,16,24,22.20
2010,06,24,16,25,22.20
2010,06,24,16,26,22.10
2010,06,24,16,27,22.10
2010,06,24,16,28,22.00
2010,06,24,16,29,22.00
2010,06,24,16,30,22.00
2010,06,24,16,31,22.00
2010,06,24,16,32,22.00
2010,06,24,16,33,22.00
2010,06,24,16,34,22.10
2010,06,24,16,35,22.10
2010,06,24,16,36,22.20
2010,06,24,16,37,22.20
2010,06,24,16,38,22.40
2010,06,24,16,39,22.50
2010,06,24,16,40,22.60
2010,06,24,16,41,22.70
2010,06,24,16,42,22.80
2010,06,24,16,43,22.90
2010,06,24,16,44,22.90
2010,06,24,16,45,22.90
2010,06,24,16,46,22.90
2010,06,24,16,47,22.90
2010,06,24,16,48,22.90
2010,06,24,16,49,22.90
2010,06,24,16,50,22.90
2010,06,24,16,51,22.90
2010,06,24,16,52,22.80
2010,06,24,16,53,22.70
2010,06,24,16,54,22.70
2010,06,24,16,55,22.60
2010,06,24,16,56,22.60
2010,06,24,16,57,22.60
2010,06,24,16,58,22.60
2010,06,24,16,59,22.60
2010,06,24,17,00,22.60
2010,06,24,17,01,22.50
2010,06,24,17,02,22.40
2010,06,24,17,03,22.40
2010,06,24,17,04,22.30
2010,06,24,17,05,22.30
2010,06,24,17,06,22.30
2010,06,24,17,07,22.30
2010,06,24,17,08,22.30
2010,06,24,17,09,22.30
2010,06,24,17,10,22.40
2010,06,24,17,11,22.40
2010,06,24,17,12,22.40
2010,06,24,17,13,22.40
2010,06,24,17,14,22.40
2010,06,24,17,15,22.40
2010,06,24,17,16,22.40
2010,06,24,17,17,22.50
2010,06,24,17,18,22.50
2010,06,24,17,19,22.50